Lid_Strength_Index
1 1 0 0 1 1 1 1 1 1 1 2 2 2 2 2 2 2 2 2 2 2 2 2 2 1 2 5 7 1 -3 -2 2 4 6 6 5 6 8 7 7 9 7 6 6 6 6
0 0 0 0 1 1 1 1 1 1 2 2 2 2 2 2 2 2 2 3 3 3 2 2 2 2 4 7 2 3 2 3 4 5 6 5 5 5 6 8 9 7 7 7 7 7 6
0 0 0 0 0 1 1 1 2 2 2 2 2 2 3 2 2 2 2 3 3 3 2 2 2 1 4 5 3 4 5 4 4 4 6 3 4 7 6 8 6 7 9 8 7 7 8
0 1 1 0 0 1 1 2 2 2 2 2 2 2 3 2 2 2 3 3 3 2 1 2 1 2 6 1 1 2 3 4 4 4 4 3 5 8 6 5 7 10 10 13 8 7 7
0 1 1 1 1 1 1 2 2 2 2 2 2 2 2 2 2 3 3 3 3 1 2 1 3 4 6 1 5 4 3 4 3 4 4 1 5 8 6 10 12 11 14 14 11 7 8
0 1 2 2 2 2 2 2 2 2 2 2 2 2 2 3 3 3 4 3 2 2 2 1 2 6 4 4 3 3 3 3 5 4 5 5 7 10 9 11 16 13 13 12 13 10 8
0 0 1 2 2 2 2 2 2 2 2 2 2 3 3 3 3 4 4 5 5 5 3 5 5 5 3 3 3 4 3 4 6 7 8 6 10 12 10 9 9 10 11 12 11 8 10
1 1 2 2 2 3 3 2 2 3 3 3 3 3 3 3 4 4 5 6 4 4 7 3 3 3 2 4 6 4 4 6 8 9 7 9 10 8 6 8 9 10 11 12 10 9 10
2 2 2 2 3 3 3 3 3 3 3 3 3 3 3 4 4 4 5 5 3 3 7 5 4 4 4 5 6 6 5 6 8 9 8 10 8 6 6 8 9 10 11 11 12 10 9
2 3 3 3 3 3 4 4 4 4 4 3 3 3 4 5 4 3 3 2 3 3 10 7 7 4 4 5 7 3 4 6 7 8 8 9 7 7 8 9 9 13 7 9 9 11 16
3 3 4 4 4 4 4 4 4 4 4 4 4 4 5 5 4 4 3 1 3 5 16 6 7 3 4 6 6 6 4 6 8 8 8 9 8 9 9 8 8 10 6 8 8 11 13
4 4 4 4 4 4 5 5 5 5 5 5 5 5 5 3 3 2 1 1 5 11 14 8 6 6 7 6 6 5 6 6 5 7 7 8 6 7 8 6 7 7 8 8 9 12 16
3 3 3 3 4 4 4 4 4 5 5 5 6 6 6 4 5 2 2 4 12 13 7 8 8 7 8 8 7 7 7 9 10 12 11 8 8 7 6 10 8 9 12 17 17 18 18
3 3 3 3 4 4 4 4 4 5 5 5 6 7 5 4 3 3 4 9 14 9 10 8 7 7 9 8 8 8 8 10 8 9 11 13 14 9 8 9 10 11 12 16 20 20 17
3 3 3 3 4 4 5 5 5 5 5 6 6 3 3 2 2 2 7 12 13 10 8 8 8 8 9 8 7 8 9 10 8 9 12 13 11 8 8 7 9 10 12 9 13 14 16
4 3 3 4 4 4 4 5 5 5 6 6 6 4 3 1 1 5 9 12 10 9 8 8 11 9 11 9 9 10 9 8 8 7 8 10 12 9 8 7 7 10 10 13 13 16 19
4 4 4 3 4 4 4 4 4 5 5 6 5 5 2 1 3 7 11 10 9 7 7 8 9 10 10 10 8 9 9 7 7 7 8 10 11 10 9 10 10 11 13 12 13 12 18
4 4 4 4 4 4 4 4 4 5 6 4 4 8 2 2 8 7 10 8 9 7 6 8 7 9 9 9 9 9 9 7 6 7 9 9 11 13 10 7 8 9 11 11 14 14 15
4 4 4 4 4 4 4 4 5 6 6 5 6 5 1 3 10 9 7 7 7 7 7 8 9 8 8 10 11 8 7 6 5 8 9 9 12 15 13 10 9 10 10 11 12 12 14
4 5 4 4 4 4 4 4 4 5 5 5 5 9 5 5 5 7 8 8 8 5 7 7 8 8 9 10 9 9 8 7 6 6 4 6 11 12 14 12 11 12 10 9 11 13 15
4 4 4 4 4 3 3 3 4 4 4 4 5 7 6 9 8 7 7 8 9 8 6 6 8 9 10 12 10 10 8 8 6 5 6 9 11 10 10 9 9 9 10 9 11 11 13
4 3 3 3 3 3 3 3 3 3 4 3 6 7 5 7 6 7 8 9 8 8 7 8 8 8 9 11 9 9 8 8 9 7 8 8 11 9 11 9 9 10 9 9 10 10 11
3 3 3 3 3 2 2 2 2 2 3 3 3 3 5 8 7 8 8 8 8 7 6 6 6 7 8 7 6 6 6 7 8 9 9 9 10 12 14 10 10 13 10 10 9 9 9
3 3 3 2 2 1 2 1 1 2 2 2 3 3 7 9 8 8 7 7 8 7 8 6 6 7 6 4 5 6 6 7 6 8 7 9 10 11 13 12 18 11 7 7 8 7 8
3 3 3 2 2 1 1 1 1 1 2 2 2 3 6 10 7 7 8 8 7 6 7 7 5 5 4 6 9 10 10 10 8 7 7 8 9 13 14 15 12 10 8 8 9 9 7
3 3 3 2 2 1 1 1 1 1 2 2 1 1 4 8 8 6 8 7 9 9 8 7 4 3 4 7 9 14 15 11 11 9 7 8 8 11 13 16 17 11 7 6 6 12 6
3 2 2 2 2 2 1 1 1 1 1 1 1 0 3 7 5 5 8 8 6 7 9 8 7 6 5 9 11 12 12 9 13 13 12 12 12 13 12 14 12 8 6 6 12 11 7
3 3 2 2 2 2 2 2 1 1 0 1 1 -0 3 6 5 4 4 6 6 6 9 7 8 8 8 11 11 11 12 10 11 10 11 12 13 13 12 14 15 6 6 10 8 7 6
3 3 2 2 2 2 2 2 1 1 0 0 2 -0 0 4 5 3 3 2 3 3 6 6 8 8 8 10 10 10 11 10 11 13 9 12 10 11 11 11 7 5 6 6 5 6 6